User: anonymous   Login
Location: Unspecified
(0.0000°N, 0.0000°E)
Time: 00:56:20
(UTC+00:00)
Language:

OBJECT AA - Orbit

View from above orbital plane
View from above orbital plane
View from above satellite
View from above satellite

Ground track
Ground track

The orbit data is extracted from the following two-line orbital elements,

1 42849U 17042AA  17324.83550534  .00000438  00000-0  48385-4 0  9998
2 42849  97.6079 230.1228 0008426 161.5716 198.5810 14.92091680 19273
Epoch (UTC): 20 November 2017 20:03:07
Eccentricity: 0.0008426
inclination: 97.6079°
perigee height: 585 km
apogee height: 597 km
right ascension of ascending node: 230.1228°
argument of perigee: 161.5716°
revolutions per day: 14.92091680
mean anomaly at epoch: 198.5810°
orbit number at epoch: 1927

The dashed part of the orbit path shows where the satellite is in the earth's shadow,  

DLR